Tiempo atmosférico en la estación meteorológica de Cabo Peñas, Asturias (100 m.)



Fecha
DESCASC
Temp. máxima en grados centígrados (hora)
DESCASC
Temp. mínima en grados centígrados (hora)
DESCASC
Temp. media en grados centígrados
DESCASC
Racha de viento máxima en m/sg (hora)
DESCASC
Velocidad máxima media en intervalos de 10 minutos(hora)
DESCASC
Precipitaciones diarias en mm
DESCASC
Precipitaciones de 00:00 a 06:00 en mm
DESCASC
Precipitaciones de 06:00 a 12:00 en mm
DESCASC
Precipitaciones de 12:00 a 18:00 en mm
DESCASC
Precipitaciones de 18:00 a 24:00 en mm
DESCASC
22-01-2020 12.7 (07:10) 8.8 (00:10) 10.8 13.61 (07:20) 7.5 (05:40) 1.9 0.1 1 0.8 0
21-01-2020 10.8 (15:00) 7 (02:40) 8.9 19.44 (06:30) 9.17 (16:50) 2.1 1.2 0.5 0.4 0
20-01-2020 10.7 (00:20) 7.6 (10:30) 9.1 24.17 (08:30) 12.78 (04:00) 1.1 0.8 0.2 0.1 0
19-01-2020 12.1 (04:10) 8.6 (00:00) 10.4 20 (02:00) 10.83 (23:30) 1.5 0.1 1.1 0 0.3
18-01-2020 13.3 (16:50) 10.6 (00:00) 12 20 (16:00) 11.39 (18:10) 0.6 0 0 0.6 0
17-01-2020 14.3 (01:50) 9.2 (00:00) 11.8 18.89 (08:30) 9.17 (03:00) 1.5 0.9 0.6 0 0
16-01-2020 20.8 (15:20) 11.4 (00:00) 16.1 21.94 (19:40) 10.83 (18:40) 0.2 0 0 0.1 0.1
15-01-2020 -- (--) -- (--) -- 17.78 (07:40) 8.89 (09:00) -- -- 0.2 0 0
14-01-2020 -- (--) -- (--) -- 14.17 (00:50) 10 (00:50) -- -- -- -- --
13-01-2020 -- (--) -- (--) -- 12.78 (23:40) 8.61 (23:40) -- -- -- -- --
12-01-2020 -- (--) -- (--) -- 5 (23:59) 3.89 (23:10) -- -- -- -- --
11-01-2020 -- (--) -- (--) -- 5.28 (07:30) 2.78 (02:10) -- -- -- -- --
10-01-2020 -- (--) -- (--) -- 16.39 (00:30) 9.72 (01:00) -- -- -- -- --
09-01-2020 -- (--) -- (--) -- 28.33 (13:40) 16.39 (14:10) -- -- -- -- --
08-01-2020 -- (--) -- (--) -- 5.28 (23:59) 4.17 (17:50) -- -- -- -- --
07-01-2020 -- (--) -- (--) -- 6.39 (00:50) 4.44 (00:40) -- -- -- -- --
06-01-2020 -- (--) -- (--) -- 7.78 (05:00) 5.28 (06:30) -- -- -- -- --
05-01-2020 -- (--) -- (--) -- 11.39 (12:50) 7.22 (12:30) -- -- -- -- --
04-01-2020 -- (--) -- (--) -- 11.67 (20:00) 6.39 (20:10) -- -- -- -- --
03-01-2020 -- (--) -- (--) -- 8.33 (14:50) 5 (05:50) -- -- -- -- --
02-01-2020 -- (--) -- (--) -- 6.39 (11:20) 5 (01:00) -- -- -- -- --
01-01-2020 -- (--) -- (--) -- 5.56 (08:00) 3.89 (23:50) -- -- -- -- --
31-12-2019 -- (--) -- (--) -- 7.22 (18:40) 3.61 (16:20) -- -- -- -- --
30-12-2019 -- (--) -- (--) -- 8.61 (00:20) 6.11 (00:20) -- -- -- -- --
29-12-2019 -- (--) -- (--) -- 10.28 (11:40) 8.33 (00:10) -- -- -- -- --
28-12-2019 -- (--) -- (--) -- 10.28 (18:40) 8.06 (23:59) -- -- -- -- --
27-12-2019 -- (--) -- (--) -- -- (--) -- (--) -- -- -- -- --

Gráficas

Temp. máximas Temp. mínimas Temp. medias Precipitaciones Rachas de viento máximas Velocidades máximas media en intervalos de 10 minutos

Datos horarios

Fecha y hora oficial Temperatura (ºC) Velocidad del viento (km/h) Dirección del viento Racha (km/h) Dirección de racha Precipitación (mm) Presión (hPa) Tendencia (hPa) Humedad (%)
2020-01-25 23:00:00 10.4 11 Sudoeste 15 Sudoeste 0 -- -- 91
2020-01-25 22:00:00 10.2 10 Sudoeste 12 Sudoeste 0 -- -- 91
2020-01-25 21:00:00 11.1 4 Sudoeste 5 Sudoeste 0 -- -- 89
2020-01-25 20:00:00 11.4 2 Noroeste 12 Noroeste 0 -- -- 88
2020-01-25 19:00:00 11.4 6 Noroeste 9 Noroeste 0 -- -- 88
2020-01-25 18:00:00 11.8 5 Noroeste 12 Norte 0 -- -- 88
2020-01-25 17:00:00 11.9 6 Noroeste 12 Noroeste 0 -- -- 87
2020-01-25 16:00:00 12.7 5 Noroeste 10 Oeste 0 -- -- 81
2020-01-25 15:00:00 12.7 6 Noroeste 10 Oeste 0 -- -- 81
2020-01-25 14:00:00 12.5 5 Noroeste 8 Noroeste 0 -- -- 79
2020-01-25 13:00:00 12.3 4 Noroeste 6 Noroeste 0 -- -- 79
2020-01-25 12:00:00 12.4 0 Calma 8 Sudeste 0 -- -- 81
2020-01-25 11:00:00 12.1 0 Calma 6 Oeste 0 -- -- 81
2020-01-25 10:00:00 11.1 5 Sudoeste 9 Sudoeste 0 -- -- 84
2020-01-25 09:00:00 10.5 9 Sudoeste 11 Sudoeste 0 -- -- 84
2020-01-25 08:00:00 10.4 8 Sudoeste 12 Sudoeste 0 -- -- 84
2020-01-25 07:00:00 10.4 6 Sudoeste 8 Sudoeste 0 -- -- 82
2020-01-25 06:00:00 10.1 7 Oeste 10 Sudoeste 0 -- -- 79
2020-01-25 05:00:00 11.4 0 Calma 4 Este 0 -- -- 78
2020-01-25 04:00:00 11.2 3 Sudeste 4 Sudeste 0 -- -- 76
2020-01-25 03:00:00 11.3 3 Oeste 9 Sudoeste 0 -- -- 73
2020-01-25 02:00:00 11.2 9 Sudoeste 12 Sudoeste 0 -- -- 73
2020-01-25 01:00:00 11.7 7 Sudoeste 8 Sudoeste 0 -- -- 73
2020-01-25 00:00:00 11.7 8 Sudoeste 14 Sudoeste 0 -- -- 79
2020-01-24 23:00:00 11.8 12 Sudoeste 15 Sudoeste 0 -- -- 83
2020-01-24 22:00:00 11.4 11 Sudoeste 16 Sudoeste 0 -- -- 89
2020-01-24 21:00:00 11.3 13 Sudoeste 16 Sudoeste 0 -- -- 88
2020-01-24 20:00:00 11.8 13 Sudoeste 17 Sudoeste 0 -- -- 89
2020-01-24 19:00:00 11.8 8 Sudoeste 10 Oeste 0 -- -- 87
2020-01-24 18:00:00 12 8 Oeste 12 Oeste 0 -- -- 83
2020-01-24 17:00:00 12.4 6 Noroeste 15 Noroeste 0 -- -- 78
2020-01-24 16:00:00 12.6 8 Noroeste 15 Oeste 0 -- -- 76
2020-01-24 15:00:00 12.5 13 Oeste 18 Oeste 0 -- -- 67
2020-01-24 14:00:00 12.3 12 Oeste 15 Oeste 0 -- -- 68
2020-01-24 13:00:00 12.3 10 Sudoeste 15 Sudoeste 0 -- -- 75
2020-01-24 12:00:00 12 9 Oeste 15 Sudoeste 0 -- -- 80
2020-01-24 11:00:00 10.7 13 Sudoeste 18 Sudoeste 0 -- -- 78
2020-01-24 10:00:00 9.9 13 Oeste 18 Oeste 0 -- -- 76
2020-01-24 09:00:00 10 12 Sudoeste 15 Sudoeste 0 -- -- 78
2020-01-24 08:00:00 9.3 12 Sudoeste 14 Sudoeste 0 -- -- 89
2020-01-24 07:00:00 9.3 14 Sudoeste 18 Sudoeste 0 -- -- 89
2020-01-24 06:00:00 8.6 10 Oeste 18 Oeste 0 -- -- 90
2020-01-24 05:00:00 8.9 14 Oeste 18 Oeste 0 -- -- 89
2020-01-24 04:00:00 8.6 13 Oeste 17 Sudoeste 0 -- -- 90
2020-01-24 03:00:00 9.1 13 Sudoeste 15 Sudoeste 0 -- -- 89
2020-01-24 02:00:00 10.4 5 Sur 9 Sur 0 -- -- 85
2020-01-24 01:00:00 10.9 8 Sudeste 17 Sudeste 0 -- -- 87
2020-01-24 00:00:00 10.6 12 Sudeste 16 Sudeste 0 -- -- 89
2020-01-23 23:00:00 10.9 9 Sudeste 15 Este 0 -- -- 88
2020-01-23 22:00:00 11 12 Este 18 Este 0 -- -- 85
2020-01-23 21:00:00 11.3 9 Este 16 Este 0 -- -- 86
2020-01-23 20:00:00 10.5 8 Sudeste 14 Sudeste 0 -- -- 87
2020-01-23 19:00:00 10.5 8 Este 16 Este 0 -- -- 87
2020-01-23 18:00:00 10.9 12 Este 20 Este 0 -- -- 87
2020-01-23 17:00:00 11.5 15 Este 23 Sudeste 0 -- -- 87
2020-01-23 16:00:00 11.5 14 Este 46 Este 0 -- -- 89
2020-01-23 15:00:00 11.5 12 Este 18 Sudeste 0 -- -- 84
2020-01-23 14:00:00 11.4 13 Este 20 Sudeste 0 -- -- 81
2020-01-23 13:00:00 11 11 Este 21 Sudeste 0 -- -- 81
2020-01-23 12:00:00 10.6 13 Sudeste 20 Sudeste 0 -- -- 78
2020-01-23 11:00:00 9.5 0 Calma 8 Sudeste 0 -- -- 77
2020-01-23 10:00:00 8.3 4 Sur 21 Sudeste 0 -- -- 79
2020-01-23 09:00:00 8.6 15 Sudeste 21 Sudeste 0 -- -- 82
2020-01-23 08:00:00 8.6 13 Sudeste 19 Sudeste 0 -- -- 84
2020-01-23 07:00:00 7.6 6 Sur 13 Sur 0 -- -- 87
2020-01-23 06:00:00 6.7 8 Sur 15 Sur 0 -- -- 91
2020-01-23 05:00:00 8 5 Sur 13 Sur 0 -- -- 89
2020-01-23 04:00:00 7.4 6 Sur 14 Sudoeste 0 -- -- 92
2020-01-23 03:00:00 8.8 7 Sudeste 14 Sudeste 0 -- -- 93
2020-01-23 02:00:00 8.8 8 Sudeste 18 Sudeste 0 -- -- 93
2020-01-23 01:00:00 9.2 11 Este 20 Sudeste 0 -- -- 93
2020-01-23 00:00:00 9.4 14 Sudeste 23 Este 0 -- -- 93
2020-01-22 23:00:00 9.5 9 Este 18 Este 0 -- -- 91
2020-01-22 22:00:00 9.7 14 Este 21 Este 0 -- -- 92
2020-01-22 21:00:00 9.7 10 Este 21 Sudeste 0 -- -- 94
2020-01-22 20:00:00 9.5 8 Sudeste 15 Sudeste 0 -- -- 95
2020-01-22 19:00:00 9.7 5 Sudeste 17 Sudeste 0 -- -- 95
2020-01-22 18:00:00 9.7 11 Sudeste 18 Sudeste 0 -- -- 95
2020-01-22 17:00:00 10.1 12 Sudeste 22 Sudeste 0 -- -- 93
2020-01-22 16:00:00 10 14 Sudeste 26 Sudeste 0 -- -- 94
2020-01-22 15:00:00 9.9 17 Sudeste 30 Sudeste 0.8 -- -- 94
2020-01-22 14:00:00 10.4 16 Sudeste 27 Sudeste 0 -- -- 93
2020-01-22 13:00:00 10.4 15 Sudeste 24 Sudeste 0 -- -- 94
2020-01-22 12:00:00 10.7 15 Sudeste 26 Sudeste 0 -- -- 94
2020-01-22 11:00:00 10.8 16 Sudeste 25 Sudeste 0.2 -- -- 92
2020-01-22 10:00:00 10.8 20 Sudeste 44 Este 0.2 -- -- 89
2020-01-22 09:00:00 12.2 26 Este 49 Este 0.5 -- -- 91
2020-01-22 08:00:00 12.4 19 Sudeste 49 Este 0 -- -- 89
2020-01-22 07:00:00 12.5 24 Sudeste 48 Nordeste 0.1 -- -- 76
2020-01-22 06:00:00 11.4 24 Este 47 Este 0 -- -- 87
2020-01-22 05:00:00 10.1 8 Este 18 Este 0 -- -- 94
2020-01-22 04:00:00 9.5 6 Este 15 Este 0 -- -- 95
2020-01-22 03:00:00 9.2 5 Sudeste 15 Este 0.1 -- -- 97
2020-01-22 02:00:00 9.2 10 Este 21 Este 0 -- -- 97
2020-01-22 01:00:00 9 15 Este 28 Este 0 -- -- 97
2020-01-22 00:00:00 9 18 Este 38 Este 0 -- -- 93
2020-01-21 23:00:00 9.2 23 Este 41 Este 0 -- -- 88
2020-01-21 22:00:00 9.4 29 Este 44 Este 0 -- -- 88
2020-01-21 21:00:00 8.8 26 Este 41 Este 0 -- -- 91
2020-01-21 20:00:00 8.5 23 Este 41 Este 0 -- -- 93
2020-01-21 19:00:00 8.8 24 Este 40 Sudeste 0 -- -- 89
2020-01-21 18:00:00 9.5 27 Este 47 Este 0 -- -- 84
2020-01-21 17:00:00 9.2 32 Este 55 Sudeste 0.3 -- -- 84
2020-01-21 16:00:00 10.1 31 Este 55 Este 0.1 -- -- 82
2020-01-21 15:00:00 10.6 22 Sudeste 57 Este 0 -- -- 74
2020-01-21 14:00:00 10.1 23 Sudeste 58 Sur 0 -- -- 75
2020-01-21 13:00:00 10.3 27 Sudeste 50 Este 0 -- -- 73
2020-01-21 12:00:00 10.3 21 Sudeste 48 Este 0.1 -- -- 73
2020-01-21 11:00:00 10.4 21 Sudeste 46 Este 0 -- -- 72
2020-01-21 10:00:00 10.3 25 Sudeste 51 Sudeste 0.2 -- -- 71
2020-01-21 09:00:00 9.8 17 Sudeste 45 Sudeste 0 -- -- 73
2020-01-21 08:00:00 9.9 22 Este 48 Este 0 -- -- 71
2020-01-21 07:00:00 9.8 25 Sudeste 70 Este 0.2 -- -- 74
2020-01-21 06:00:00 9.9 27 Sudeste 49 Sudeste 0 -- -- 75
2020-01-21 05:00:00 9.5 25 Sudeste 48 Sudeste 0 -- -- 75
2020-01-21 04:00:00 7.9 13 Este 46 Este 0.6 -- -- 93
2020-01-21 03:00:00 7.3 12 Sudeste 22 Sudeste 0.4 -- -- 89
2020-01-21 02:00:00 7.5 13 Sudeste 26 Sudeste 0.2 -- -- 82
2020-01-21 01:00:00 8 16 Sudeste 46 Este 0 -- -- 76
2020-01-21 00:00:00 9.3 28 Este 47 Este 0 -- -- 71
2020-01-20 23:00:00 9.4 27 Este -- -- 0 -- -- 70
2020-01-20 22:00:00 9.2 28 Este 50 Este 0 -- -- 67
2020-01-20 21:00:00 9.1 31 Este 53 Este 0 -- -- 64
2020-01-20 20:00:00 8.9 28 Este 51 Este 0 -- -- 63
2020-01-20 19:00:00 8.9 28 Este 51 Este 0 -- -- 62
2020-01-20 18:00:00 9.4 27 Este 52 Este 0 -- -- 63
2020-01-20 17:00:00 9.3 27 Este 64 Este 0 -- -- 62
2020-01-20 16:00:00 9.6 33 Este 62 Este 0 -- -- 62
2020-01-20 15:00:00 9.8 32 Este 64 Este 0 -- -- 67
2020-01-20 14:00:00 9.1 35 Este 69 Este 0 -- -- 70
2020-01-20 13:00:00 10.1 28 Sudeste 63 Este 0.1 -- -- 66
2020-01-20 12:00:00 9.8 41 Este 69 Este 0 -- -- 70
2020-01-20 11:00:00 9.2 39 Este 74 Este 0.2 -- -- 72
2020-01-20 10:00:00 9.1 36 Este 74 Este 0 -- -- 73
2020-01-20 09:00:00 9.6 41 Este 87 Este 0 -- -- 64
2020-01-20 08:00:00 9.8 36 Este 69 Este 0 -- -- 64
2020-01-20 07:00:00 9.5 26 Sudeste 62 Este 0 -- -- 66
2020-01-20 06:00:00 9.6 26 Sudeste 73 Sudeste 0 -- -- 68
2020-01-20 05:00:00 9.7 34 Este 81 Este 0 -- -- 68
2020-01-20 04:00:00 9.1 46 Este 78 Este 0 -- -- 73
2020-01-20 03:00:00 9.6 40 Este 72 Este 0.3 -- -- 72
2020-01-20 02:00:00 10 33 Este 72 Este 0.4 -- -- 66
2020-01-20 01:00:00 9.1 19 Este 69 Este 0.1 -- -- 73
2020-01-20 00:00:00 10.4 36 Sudeste 72 Este 0.3 -- -- 61
2020-01-19 23:00:00 10.4 27 Sudeste 65 Este 0 -- -- 64
2020-01-19 22:00:00 10.7 31 Sudeste 62 Este 0 -- -- 61
2020-01-19 21:00:00 10.8 25 Sudeste 66 Sudeste 0 -- -- 64
2020-01-19 20:00:00 10.6 22 Sudeste 54 Sudeste 0 -- -- 65
2020-01-19 19:00:00 10.5 25 Sudeste 52 Este 0 -- -- 64
2020-01-19 18:00:00 10.6 23 Sudeste 50 Este 0 -- -- 62
2020-01-19 17:00:00 10.8 23 Este 51 Este 0 -- -- 64
2020-01-19 16:00:00 11 23 Sudeste 52 Sudeste 0 -- -- 63
2020-01-19 15:00:00 11.2 27 Sudeste 54 Este 0 -- -- 63
2020-01-19 14:00:00 11.2 22 Este 48 Este 0 -- -- 63
2020-01-19 13:00:00 11.2 24 Este 47 Este 0 -- -- 66
2020-01-19 12:00:00 11.2 19 Sudeste 50 Nordeste 0 -- -- 66
2020-01-19 11:00:00 11.3 19 Este 50 Este 0.1 -- -- 70
2020-01-19 10:00:00 11.3 18 Este 50 Nordeste 1 -- -- 70
2020-01-19 09:00:00 11.7 19 Este 46 Sudeste 0 -- -- 68
2020-01-19 08:00:00 11.7 17 Este 60 Nordeste 0 -- -- 65
2020-01-19 07:00:00 11.5 18 Este 57 Nordeste 0 -- -- 66
2020-01-19 06:00:00 11.7 21 Este 60 Nordeste 0 -- -- 67
2020-01-19 05:00:00 11.9 20 Este 62 Nordeste 0 -- -- 73
2020-01-19 04:00:00 12 24 Este 66 Este 0 -- -- 72
2020-01-19 03:00:00 11.5 23 Este 67 Este 0.1 -- -- 83
2020-01-19 02:00:00 11.4 29 Nordeste 72 Nordeste 0 -- -- 88
2020-01-19 01:00:00 10.6 14 Sudoeste 27 Sudoeste 0 -- -- 87
2020-01-19 00:00:00 11 19 Sudoeste 37 Oeste 0 -- -- 85
2020-01-18 23:00:00 11.6 20 Oeste 46 Oeste 0 -- -- 83
2020-01-18 22:00:00 12 29 Oeste 51 Oeste 0 -- -- 78
2020-01-18 21:00:00 12.2 26 Oeste 50 Oeste 0 -- -- 76
2020-01-18 20:00:00 11.6 21 Oeste 44 Oeste 0 -- -- 79
2020-01-18 19:00:00 11.5 28 Oeste 66 Oeste 0 -- -- 78
2020-01-18 18:00:00 11.8 36 Oeste 72 Oeste 0.2 -- -- 77
2020-01-18 17:00:00 13 27 Oeste 60 Oeste 0 -- -- 76
2020-01-18 16:00:00 13 35 Oeste 72 Oeste 0.3 -- -- 80
2020-01-18 15:00:00 11.2 20 Sudoeste 36 Sudoeste 0 -- -- 91
2020-01-18 14:00:00 12 15 Sudeste 32 Sudeste 0.1 -- -- 85
2020-01-18 13:00:00 13.1 18 Este 28 Sudeste 0 -- -- 85
2020-01-18 12:00:00 12.5 15 Este 30 Este 0 -- -- 83
2020-01-18 11:00:00 12.1 19 Este 35 Este 0 -- -- 81
2020-01-18 10:00:00 11.4 22 Este 30 Este 0 -- -- 77
2020-01-18 09:00:00 11.1 23 Sudeste 40 Sudeste 0 -- -- 75
2020-01-18 08:00:00 11.1 30 Sudeste 45 Sudeste 0 -- -- 78
2020-01-18 07:00:00 11.2 26 Sudeste 43 Este 0 -- -- 77
2020-01-18 06:00:00 11.2 27 Este 43 Este 0 -- -- 77
2020-01-18 05:00:00 11.1 22 Este 40 Sudeste 0 -- -- 77
2020-01-18 04:00:00 11 25 Sudeste 35 Sudeste 0 -- -- 77
2020-01-18 03:00:00 11.2 21 Sudeste 31 Este 0 -- -- 77
2020-01-18 02:00:00 10.8 19 Este 27 Sudeste 0 -- -- 77
2020-01-18 01:00:00 10.9 17 Sudeste 24 Sudeste 0 -- -- 74
2020-01-18 00:00:00 10.6 16 Sudeste 21 Sudeste 0 -- -- 75
2020-01-17 23:00:00 10.8 10 Sudeste 16 Sudeste 0 -- -- 74
2020-01-17 22:00:00 10.6 9 Sudeste 14 Sudeste 0 -- -- 76
2020-01-17 21:00:00 10.7 4 Sur 15 Noroeste 0 -- -- 75
2020-01-17 20:00:00 11.8 8 Noroeste 17 Noroeste 0 -- -- 72
2020-01-17 19:00:00 11.9 13 Noroeste 32 Noroeste 0 -- -- 70
2020-01-17 18:00:00 11.8 12 Noroeste 44 Oeste 0 -- -- 69
2020-01-17 17:00:00 12.2 20 Noroeste 44 Oeste 0 -- -- 66
2020-01-17 16:00:00 12.5 19 Oeste 46 Oeste 0 -- -- 66
2020-01-17 15:00:00 12.6 22 Oeste 46 Noroeste 0 -- -- 65
2020-01-17 14:00:00 12.5 30 Oeste 48 Oeste 0 -- -- 61
2020-01-17 13:00:00 12.3 23 Oeste 40 Oeste 0 -- -- 64
2020-01-17 12:00:00 11.5 26 Sudoeste 48 Sudoeste 0 -- -- 71
2020-01-17 11:00:00 11.5 25 Oeste 44 Oeste 0 -- -- 71
2020-01-17 10:00:00 10.8 28 Oeste 48 Oeste 0 -- -- 75
2020-01-17 09:00:00 10.1 30 Oeste 68 Noroeste 0 -- -- 82
2020-01-17 08:00:00 11.8 20 Oeste 46 Oeste 0 -- -- 70
2020-01-17 07:00:00 11.2 25 Oeste 46 Oeste 0.6 -- -- 74
2020-01-17 06:00:00 12.1 21 Oeste 53 Oeste 0.3 -- -- 70
2020-01-17 05:00:00 12.4 24 Oeste 48 Oeste 0 -- -- 68
2020-01-17 04:00:00 12.1 27 Sudoeste 48 Oeste 0 -- -- 74
2020-01-17 03:00:00 12.2 33 Oeste 62 Oeste 0.2 -- -- 78
2020-01-17 02:00:00 13.6 26 Oeste 40 Oeste 0.1 -- -- 66
2020-01-17 01:00:00 13.7 21 Sudoeste 37 Sudoeste 0.3 -- -- 65
2020-01-17 00:00:00 13.6 23 Sudoeste 32 Sudoeste 0 -- -- 69
2020-01-16 23:00:00 13.7 22 Oeste 34 Oeste 0 -- -- 71
2020-01-16 22:00:00 12.3 21 Sudoeste 40 Sudoeste 0 -- -- 78
2020-01-16 21:00:00 11.6 17 Sudoeste 41 Oeste 0.1 -- -- 92
2020-01-16 20:00:00 12 24 Oeste 79 Oeste 0 -- -- 86
2020-01-16 19:00:00 12.5 31 Noroeste 70 Noroeste 0 -- -- 98
2020-01-16 18:00:00 13.7 15 Noroeste 27 Noroeste 0.1 -- -- 90
2020-01-16 17:00:00 13.8 16 Noroeste 32 Nordeste 0 -- -- 88
2020-01-16 16:00:00 19 17 Sudoeste 25 Sudoeste 0 -- -- 49
2020-01-16 15:00:00 20.4 6 Sur 21 Sudeste 0 -- -- 49
2020-01-16 14:00:00 20 9 Sudeste 24 Sudeste 0 -- -- 50
2020-01-16 13:00:00 19.4 11 Sudeste 29 Sudeste 0 -- -- 53
2020-01-16 12:00:00 19.2 7 Sur 26 Sudeste 0 -- -- 50
2020-01-16 11:00:00 18.8 6 Sudeste 24 Sudeste 0 -- -- 53
2020-01-16 10:00:00 17.5 15 Sudeste 24 Sudeste 0 -- -- 56
2020-01-16 09:00:00 17.3 13 Sudeste 23 Sudeste 0 -- -- 55
2020-01-16 08:00:00 17.4 15 Sudeste 24 Sudeste 0 -- -- 53
2020-01-16 07:00:00 17.6 21 Sudeste 31 Sudeste 0 -- -- 50
2020-01-16 06:00:00 17.6 19 Sudeste 32 Sudeste 0 -- -- 51
2020-01-16 05:00:00 15.7 22 Sudeste 30 Sudeste 0 -- -- 66
2020-01-16 04:00:00 13.5 7 Sudeste 11 Sudeste 0 -- -- 72
2020-01-16 03:00:00 12 8 Sudeste 26 Sudeste 0 -- -- 82
2020-01-16 02:00:00 11.4 23 Sudeste 34 Sudeste 0 -- -- 89
2020-01-16 01:00:00 11.9 26 Sudeste 41 Sudeste 0 -- -- 93
2020-01-16 00:00:00 11.8 30 Sudeste 45 Sudeste 0 -- -- 91
2020-01-15 23:00:00 11.8 30 Sudeste 42 Sudeste 0 -- -- 92
2020-01-15 22:00:00 11.8 23 Sudeste 32 Sudeste 0 -- -- 93
2020-01-15 21:00:00 12.1 22 Este 32 Este 0 -- -- 93
2020-01-15 20:00:00 12.2 19 Este 27 Este 0 -- -- 90
2020-01-15 19:00:00 12.4 15 Este 21 Este 0 -- -- 87
2020-01-15 18:00:00 12.5 6 Este 12 Este 0 -- -- 82
2020-01-15 17:00:00 13.5 0 Calma 12 Norte 0 -- -- 78
2020-01-15 16:00:00 13.3 4 Norte 26 Noroeste 0 -- -- 78
2020-01-15 15:00:00 13.4 16 Noroeste 55 Noroeste 0 -- -- 78
2020-01-15 14:00:00 13.5 18 Noroeste 32 Norte 0 -- -- 79
2020-01-15 13:00:00 13.1 13 Noroeste 29 Oeste 0 -- -- 84
2020-01-15 12:00:00 12.8 11 Oeste 41 Noroeste 0 -- -- 86
2020-01-15 11:00:00 12.4 17 Noroeste 43 Noroeste 0 -- -- 94
2020-01-15 10:00:00 12.6 21 Oeste 44 Oeste 0.1 -- -- 96
2020-01-15 09:00:00 12.3 32 Oeste 56 Oeste 0.1 -- -- 97
2020-01-15 08:00:00 12.9 22 Noroeste 64 Noroeste 0 -- -- 87
2020-01-15 07:00:00 16 8 Oeste 17 Oeste 0 -- -- 59
2020-01-15 06:00:00 16.4 3 Sudeste 17 Sudeste 0 -- -- 56
2020-01-15 05:00:00 16.8 3 Sudeste 21 Sudeste 0 -- -- 54
2020-01-15 04:00:00 16.6 6 Sudeste 24 Sudeste 0 -- -- 55
2020-01-15 03:00:00 16.1 4 Sudeste 17 Sudeste 0 -- -- 55
2020-01-15 02:00:00 16 10 Sudeste 25 Sudeste 0 -- -- 54
2020-01-15 01:00:00 15.4 18 Sudeste 26 Sudeste -- -- -- 55
2020-01-15 00:00:00 -- 10 Sudeste 28 Sudeste -- -- -- --
2020-01-14 23:00:00 -- 13 Sudeste 34 Sur -- -- -- --
2020-01-14 22:00:00 -- 19 Sudeste 27 Sudeste -- -- -- --
2020-01-14 21:00:00 -- 9 Sudeste 27 Sudeste -- -- -- --
2020-01-14 20:00:00 -- 3 Sudeste 17 Sudoeste -- -- -- --
2020-01-14 19:00:00 -- 5 Sudeste -- -- -- -- -- --
2020-01-14 18:00:00 -- 6 Sur 19 Sur -- -- -- --
2020-01-14 17:00:00 -- 0 Calma 19 Sudoeste -- -- -- --
2020-01-14 16:00:00 -- 6 Sur 21 Sudoeste -- -- -- --
2020-01-14 15:00:00 -- 5 Sur 19 Sur -- -- -- --
2020-01-14 14:00:00 -- 5 Sur 15 Sudoeste -- -- -- --
2020-01-14 13:00:00 -- 6 Sudeste 9 Sudeste -- -- -- --
2020-01-14 12:00:00 -- 7 Sudoeste 10 Oeste -- -- -- --
2020-01-14 11:00:00 -- 7 Sudoeste 12 Sudoeste -- -- -- --
2020-01-14 10:00:00 -- 8 Sudoeste 14 Sudoeste -- -- -- --
2020-01-14 09:00:00 -- 13 Sudoeste 18 Sudoeste -- -- -- --
2020-01-14 08:00:00 -- 11 Sur 24 Sur -- -- -- --
2020-01-14 07:00:00 -- 13 Sur 23 Sur -- -- -- --
2020-01-14 06:00:00 -- 5 Sur 19 Sudoeste -- -- -- --
2020-01-14 05:00:00 -- 12 Sudoeste 22 Oeste -- -- -- --
2020-01-14 04:00:00 -- 17 Sudoeste 25 Sudoeste -- -- -- --
2020-01-14 03:00:00 -- 13 Sudoeste 20 Sudoeste -- -- -- --
2020-01-14 02:00:00 -- 11 Sudoeste 42 Sudoeste -- -- -- --
2020-01-14 01:00:00 -- 32 Sudoeste 51 Sudoeste -- -- -- --
2020-01-14 00:00:00 -- 28 Sudoeste 46 Sudoeste -- -- -- --
2020-01-13 23:00:00 -- 23 Sudoeste 35 Sudoeste -- -- -- --
2020-01-13 22:00:00 -- 13 Sudoeste 21 Sudoeste -- -- -- --
2020-01-13 21:00:00 -- 7 Sur 26 Sudoeste -- -- -- --
2020-01-13 20:00:00 -- 17 Sudoeste 37 Sudoeste -- -- -- --
2020-01-13 19:00:00 -- 15 Sudoeste 20 Sudoeste -- -- -- --
2020-01-13 18:00:00 -- 6 Noroeste 11 Norte -- -- -- --
2020-01-13 17:00:00 -- 2 Oeste 10 Noroeste -- -- -- --
2020-01-13 16:00:00 -- 6 Noroeste 17 Sudoeste -- -- -- --
2020-01-13 15:00:00 -- 12 Sudoeste 25 Sudoeste -- -- -- --
2020-01-13 14:00:00 -- 4 Sur 14 Sur -- -- -- --
2020-01-13 13:00:00 -- 6 Sur 17 Sur -- -- -- --
2020-01-13 12:00:00 -- 6 Sudeste 18 Sudeste -- -- -- --
2020-01-13 11:00:00 -- 13 Sudeste 22 Sudeste -- -- -- --
2020-01-13 10:00:00 -- 6 Sudeste 13 Sudeste -- -- -- --
2020-01-13 09:00:00 -- 4 Sudeste 12 Sudeste -- -- -- --
2020-01-13 08:00:00 -- 0 Calma 6 Sudoeste -- -- -- --
2020-01-13 07:00:00 -- 3 Sur 12 Sudeste -- -- -- --
2020-01-13 06:00:00 -- 8 Sudoeste 10 Sudoeste -- -- -- --
2020-01-13 05:00:00 -- 9 Sudoeste 15 Sudoeste -- -- -- --
2020-01-13 04:00:00 -- 12 Sudoeste 16 Sudoeste -- -- -- --
2020-01-13 03:00:00 -- 13 Sudoeste 17 Sudoeste -- -- -- --
2020-01-13 02:00:00 -- 12 Sudoeste 15 Sudeste -- -- -- --
2020-01-13 01:00:00 -- 5 Sudeste 19 Sudeste -- -- -- --
2020-01-13 00:00:00 -- 13 Sudeste 18 Sudeste -- -- -- --
2020-01-12 23:00:00 -- 13 Sudeste 15 Sudeste -- -- -- --
2020-01-12 22:00:00 -- 7 Sudeste 10 Sudeste -- -- -- --
2020-01-12 21:00:00 -- 3 Sudeste 6 Este -- -- -- --
2020-01-12 20:00:00 -- 5 Sudeste 7 Sudeste -- -- -- --
2020-01-12 19:00:00 -- 4 Este 6 Este -- -- -- --
2020-01-12 18:00:00 -- 3 Este 5 Sudeste -- -- -- --
2020-01-12 17:00:00 -- 3 Sudeste 8 Este -- -- -- --
2020-01-12 16:00:00 -- 4 Sudeste 7 Sudeste -- -- -- --
2020-01-12 15:00:00 -- 3 Noroeste 7 Sudeste -- -- -- --
2020-01-12 14:00:00 -- 3 Noroeste 8 Oeste -- -- -- --
2020-01-12 13:00:00 -- 8 Oeste 11 Oeste -- -- -- --
2020-01-12 12:00:00 -- 6 Oeste 12 Sudoeste -- -- -- --
2020-01-12 11:00:00 -- 7 Sudoeste 11 Sudoeste -- -- -- --
2020-01-12 10:00:00 -- 0 Calma 8 Sudoeste -- -- -- --
2020-01-12 09:00:00 -- 6 Oeste 10 Sudoeste -- -- -- --
2020-01-12 08:00:00 -- 8 Sur 16 Sudeste -- -- -- --
2020-01-12 07:00:00 -- 4 Sur 10 Sudeste -- -- -- --
2020-01-12 06:00:00 -- 6 Sur 15 Sudoeste -- -- -- --
2020-01-12 05:00:00 -- 13 Sudoeste 14 Sudoeste -- -- -- --
2020-01-12 04:00:00 -- 11 Sudoeste 15 Sudoeste -- -- -- --
2020-01-12 03:00:00 -- 10 Sudoeste 13 Sudoeste -- -- -- --
2020-01-12 02:00:00 -- 4 Sur 9 Sur -- -- -- --
2020-01-12 01:00:00 -- 6 Sur 9 Sur -- -- -- --
2020-01-12 00:00:00 -- 6 Sur 10 Sudoeste -- -- -- --
2020-01-11 23:00:00 -- 9 Sudoeste 12 Sudoeste -- -- -- --
2020-01-11 22:00:00 -- 10 Sudoeste 13 Sudoeste -- -- -- --
2020-01-11 21:00:00 -- 8 Sudoeste 13 Noroeste -- -- -- --
2020-01-11 20:00:00 -- 9 Oeste 13 Oeste -- -- -- --
2020-01-11 19:00:00 -- 10 Oeste 13 Oeste -- -- -- --
2020-01-11 18:00:00 -- 5 Sudoeste 11 Oeste -- -- -- --
2020-01-11 17:00:00 -- 8 Oeste 11 Oeste -- -- -- --
2020-01-11 16:00:00 -- 5 Oeste 8 Oeste -- -- -- --
2020-01-11 15:00:00 -- 3 Noroeste 7 Noroeste -- -- -- --
2020-01-11 14:00:00 -- 2 Norte 6 Sudeste -- -- -- --
2020-01-11 13:00:00 -- 0 Calma 5 Oeste -- -- -- --
2020-01-11 12:00:00 -- 2 Noroeste 10 Sur -- -- -- --
2020-01-11 11:00:00 -- 5 Sur 16 Sur -- -- -- --
2020-01-11 10:00:00 -- 5 Sur 16 Sudeste -- -- -- --
2020-01-11 09:00:00 -- 5 Sudeste 17 Sur -- -- -- --
2020-01-11 08:00:00 -- 5 Sudeste 19 Sudeste -- -- -- --
2020-01-11 07:00:00 -- 4 Sur 17 Sudeste -- -- -- --
2020-01-11 06:00:00 -- 4 Sudeste 15 Sudeste -- -- -- --
2020-01-11 05:00:00 -- 4 Sudeste 12 Sudeste -- -- -- --
2020-01-11 04:00:00 -- 4 Sur 13 Sudoeste -- -- -- --
2020-01-11 03:00:00 -- 5 Sur 14 Sudoeste -- -- -- --
2020-01-11 02:00:00 -- 7 Sur 14 Sur -- -- -- --
2020-01-11 01:00:00 -- 6 Sur 12 Sur -- -- -- --
2020-01-11 00:00:00 -- 5 Sudoeste 8 Sur -- -- -- --
2020-01-10 23:00:00 -- 7 Sudoeste 10 Sur -- -- -- --
2020-01-10 22:00:00 -- 6 Sur 10 Sur -- -- -- --
2020-01-10 21:00:00 -- 6 Sur 11 Sur -- -- -- --
2020-01-10 20:00:00 -- 5 Sur 9 Sur -- -- -- --
2020-01-10 19:00:00 -- 3 Este 6 Este -- -- -- --
2020-01-10 18:00:00 -- 0 Calma 6 Sudeste -- -- -- --
2020-01-10 17:00:00 -- 3 Sudeste 11 Sur -- -- -- --
2020-01-10 16:00:00 -- 5 Noroeste 19 Noroeste -- -- -- --
2020-01-10 15:00:00 -- 6 Oeste 12 Oeste -- -- -- --
2020-01-10 14:00:00 -- 8 Oeste 17 Sudoeste -- -- -- --
2020-01-10 13:00:00 -- 12 Sudoeste 18 Sudoeste -- -- -- --
2020-01-10 12:00:00 -- 13 Sudoeste 18 Noroeste -- -- -- --
2020-01-10 11:00:00 -- 0 Calma 28 Nordeste -- -- -- --
2020-01-10 10:00:00 -- 15 Noroeste 32 Norte -- -- -- --
2020-01-10 09:00:00 -- 15 Noroeste 31 Noroeste -- -- -- --
2020-01-10 08:00:00 -- 21 Noroeste 50 Norte -- -- -- --
2020-01-10 07:00:00 -- 24 Noroeste 48 Noroeste -- -- -- --
2020-01-10 06:00:00 -- 17 Noroeste 44 Noroeste -- -- -- --
2020-01-10 05:00:00 -- 18 Noroeste 46 Noroeste -- -- -- --
2020-01-10 04:00:00 -- 19 Noroeste 54 Oeste -- -- -- --
2020-01-10 03:00:00 -- 22 Noroeste 58 Noroeste -- -- -- --
2020-01-10 02:00:00 -- 18 Oeste 58 Oeste -- -- -- --
2020-01-10 01:00:00 -- 35 Oeste 59 Oeste -- -- -- --
2020-01-10 00:00:00 -- 31 Oeste 63 Oeste -- -- -- --
2020-01-09 23:00:00 -- 27 Oeste 65 Norte -- -- -- --
2020-01-09 22:00:00 -- 29 Oeste 62 Noroeste -- -- -- --
2020-01-09 21:00:00 -- 31 Oeste 56 Oeste -- -- -- --
2020-01-09 20:00:00 -- 26 Oeste 54 Oeste -- -- -- --
2020-01-09 19:00:00 -- 33 Oeste 65 Oeste -- -- -- --
2020-01-09 18:00:00 -- 34 Oeste 67 Oeste -- -- -- --
2020-01-09 17:00:00 -- 35 Oeste 80 Oeste -- -- -- --
2020-01-09 16:00:00 -- 35 Oeste 84 Oeste -- -- -- --
2020-01-09 15:00:00 -- 37 Oeste 92 Noroeste -- -- -- --
2020-01-09 14:00:00 -- 53 Noroeste 102 Noroeste -- -- -- --
2020-01-09 13:00:00 -- 20 Noroeste 52 Noroeste -- -- -- --
2020-01-09 12:00:00 -- 16 Sudoeste 33 Sudoeste -- -- -- --
2020-01-09 11:00:00 -- 19 Sudoeste 30 Sudoeste -- -- -- --
2020-01-09 10:00:00 -- 19 Sudoeste 30 Sudoeste -- -- -- --
2020-01-09 09:00:00 -- 14 Sudoeste 21 Sudoeste -- -- -- --
2020-01-09 08:00:00 -- 6 Sur 12 Oeste -- -- -- --
2020-01-09 07:00:00 -- 10 Sudoeste 22 Sudoeste -- -- -- --
2020-01-09 06:00:00 -- 15 Sudoeste 25 Sudoeste -- -- -- --
2020-01-09 05:00:00 -- 17 Sudoeste 21 Sudoeste -- -- -- --
2020-01-09 04:00:00 -- 9 Sur 17 Sudoeste -- -- -- --
2020-01-09 03:00:00 -- 12 Sudoeste 15 Sudoeste -- -- -- --
2020-01-09 02:00:00 -- 14 Sudoeste 18 Sudoeste -- -- -- --
2020-01-09 01:00:00 -- 13 Sudoeste 20 Sudeste -- -- -- --
2020-01-09 00:00:00 -- 8 Sudeste 19 Sudeste -- -- -- --
2020-01-08 23:00:00 -- 9 Sudoeste 12 Sudoeste -- -- -- --
2020-01-08 22:00:00 -- 5 Sudeste 9 Sudeste -- -- -- --
2020-01-08 21:00:00 -- 6 Sudeste 13 Oeste -- -- -- --
2020-01-08 20:00:00 -- 9 Sudoeste 12 Sudoeste -- -- -- --
2020-01-08 19:00:00 -- 6 Sudeste 18 Sudeste -- -- -- --
2020-01-08 18:00:00 -- 13 Sudeste 18 Sudeste -- -- -- --
2020-01-08 17:00:00 -- 11 Sudeste 18 Sudeste -- -- -- --
2020-01-08 16:00:00 -- 12 Sudeste 14 Sudeste -- -- -- --
2020-01-08 15:00:00 -- 12 Sudeste 16 Sudeste -- -- -- --
2020-01-08 14:00:00 -- 14 Sudeste 17 Sudeste -- -- -- --
2020-01-08 13:00:00 -- 9 Sudeste 17 Sudeste -- -- -- --
2020-01-08 12:00:00 -- 8 Sudeste 13 Sudeste -- -- -- --
2020-01-08 11:00:00 -- 6 Sudeste 8 Sudeste -- -- -- --
2020-01-08 10:00:00 -- 6 Sudeste 13 Sudeste -- -- -- --
2020-01-08 09:00:00 -- 5 Sudeste 11 Sudeste -- -- -- --
2020-01-08 08:00:00 -- 5 Sur 10 Sudoeste -- -- -- --
2020-01-08 07:00:00 -- 8 Sudoeste 9 Sudoeste -- -- -- --
2020-01-08 06:00:00 -- 7 Oeste 9 Sudoeste -- -- -- --
2020-01-08 05:00:00 -- 4 Oeste 8 Oeste -- -- -- --
2020-01-08 04:00:00 -- 4 Noroeste 7 Sudoeste -- -- -- --
2020-01-08 03:00:00 -- 7 Sudoeste 10 Sudoeste -- -- -- --
2020-01-08 02:00:00 -- 3 Sur 7 Sudoeste -- -- -- --
2020-01-08 01:00:00 -- 5 Sur 7 Sudoeste -- -- -- --
2020-01-08 00:00:00 -- 5 Sudoeste 14 Sudoeste -- -- -- --
2020-01-07 23:00:00 -- 13 Sudoeste 15 Sudoeste -- -- -- --
2020-01-07 22:00:00 -- 2 Sudoeste 7 Sudoeste -- -- -- --
2020-01-07 21:00:00 -- 2 Sudoeste 9 Sur -- -- -- --
2020-01-07 20:00:00 -- 6 Sudeste 12 Sudeste -- -- -- --
2020-01-07 19:00:00 -- 3 Sudeste 6 Sudeste -- -- -- --
2020-01-07 18:00:00 -- 6 Sudeste 8 Sudeste -- -- -- --
2020-01-07 17:00:00 -- 5 Sudeste 6 Sudeste -- -- -- --
2020-01-07 16:00:00 -- 3 Sudeste 10 Oeste -- -- -- --
2020-01-07 15:00:00 -- 6 Oeste 11 Oeste -- -- -- --
2020-01-07 14:00:00 -- 8 Oeste 12 Oeste -- -- -- --
2020-01-07 13:00:00 -- 6 Oeste 10 Sudoeste -- -- -- --
2020-01-07 12:00:00 -- 6 Sudoeste 9 Sudoeste -- -- -- --
2020-01-07 11:00:00 -- 9 Sudoeste 14 Sudoeste -- -- -- --
2020-01-07 10:00:00 -- 13 Sudoeste 16 Sudoeste -- -- -- --
2020-01-07 09:00:00 -- 8 Sudoeste 13 Sudoeste -- -- -- --
2020-01-07 08:00:00 -- 9 Sudoeste 11 Oeste -- -- -- --
2020-01-07 07:00:00 -- 4 Noroeste 8 Sur -- -- -- --
2020-01-07 06:00:00 -- 5 Sur 8 Sur -- -- -- --
2020-01-07 05:00:00 -- 6 Sudoeste 16 Sudoeste -- -- -- --
2020-01-07 04:00:00 -- 9 Sur 17 Sudoeste -- -- -- --
2020-01-07 03:00:00 -- 5 Sudeste 14 Sudeste -- -- -- --
2020-01-07 02:00:00 -- 5 Sur 14 Sudeste -- -- -- --
2020-01-07 01:00:00 -- 10 Sudeste 23 Sudeste -- -- -- --
2020-01-07 00:00:00 -- 12 Sudeste 18 Sudeste -- -- -- --
2020-01-06 23:00:00 -- 8 Sudeste 22 Sudeste -- -- -- --
2020-01-06 22:00:00 -- 3 Sur 12 Sudeste -- -- -- --
2020-01-06 21:00:00 -- 5 Sudeste 23 Sudeste -- -- -- --
2020-01-06 20:00:00 -- 9 Sudeste 22 Sudeste -- -- -- --
2020-01-06 19:00:00 -- 6 Sudeste 9 Sudeste -- -- -- --
2020-01-06 18:00:00 -- 0 Calma 10 Noroeste -- -- -- --
2020-01-06 17:00:00 -- 2 Noroeste 14 Nordeste -- -- -- --
2020-01-06 16:00:00 -- 4 Sur 16 Sudoeste -- -- -- --
2020-01-06 15:00:00 -- 9 Sudoeste 21 Sudoeste -- -- -- --
2020-01-06 14:00:00 -- 12 Oeste 24 Sudoeste -- -- -- --
2020-01-06 13:00:00 -- 14 Oeste 23 Oeste -- -- -- --
2020-01-06 12:00:00 -- 13 Sudoeste 19 Sudoeste -- -- -- --
2020-01-06 11:00:00 -- 11 Sudoeste 14 Sudoeste -- -- -- --
2020-01-06 10:00:00 -- 10 Sudoeste 15 Sur -- -- -- --